Stündliche Wetter Aathal

Heute, 2 März, Dienstag

Zeit Temperatur Niederschläge Wind Luftdruck Luftfeuchtigkeit
00:00 +3°C° 0 mm 1 m/S 723 mmHg 64%
01:00 +2°C° 0 mm 1 m/S 723 mmHg 63%
02:00 +2°C° 0 mm 1 m/S 723 mmHg 60%
03:00 +2°C° 0 mm 1 m/S 723 mmHg 58%
04:00 +2°C° 0 mm 1 m/S 723 mmHg 56%
05:00 +2°C° 0 mm 1 m/S 723 mmHg 54%
06:00 +1°C° 0 mm 1 m/S 723 mmHg 52%
07:00 +1°C° 0 mm 1 m/S 723 mmHg 50%
08:00 +4°C° 0 mm 1 m/S 723 mmHg 48%
09:00 +6°C° 0 mm 1 m/S 723 mmHg 45%
10:00 +8°C° 0 mm 0 m/S 724 mmHg 43%
11:00 +10°C° 0 mm 0 m/S 724 mmHg 41%
12:00 +11°C° 0 mm 0 m/S 724 mmHg 40%
13:00 +13°C° 0 mm 0 m/S 724 mmHg 39%
14:00 +13°C° 0 mm 0 m/S 723 mmHg 41%
15:00 +13°C° 0 mm 0 m/S 723 mmHg 43%
16:00 +12°C° 0 mm 0 m/S 723 mmHg 45%
17:00 +10°C° 0 mm 0 m/S 723 mmHg 50%
18:00 +9°C° 0 mm 1 m/S 723 mmHg 55%
19:00 +7°C° 0 mm 1 m/S 723 mmHg 60%
20:00 +6°C° 0 mm 1 m/S 723 mmHg 61%
21:00 +5°C° 0 mm 1 m/S 724 mmHg 61%
22:00 +5°C° 0 mm 1 m/S 724 mmHg 61%
23:00 +5°C° 0 mm 1 m/S 724 mmHg 60%

Morgen, 3 März, Mittwoch

Zeit Temperatur Niederschläge Wind Luftdruck Luftfeuchtigkeit
00:00 +4°C° 0 mm 1 m/S 724 mmHg 59%
01:00 +4°C° 0 mm 1 m/S 724 mmHg 58%
02:00 +4°C° 0 mm 1 m/S 724 mmHg 56%
03:00 +4°C° 0 mm 1 m/S 723 mmHg 55%
04:00 +3°C° 0 mm 1 m/S 723 mmHg 53%
05:00 +3°C° 0 mm 1 m/S 723 mmHg 53%
06:00 +3°C° 0 mm 1 m/S 723 mmHg 52%
07:00 +2°C° 0 mm 0 m/S 723 mmHg 52%
08:00 +4°C° 0 mm 0 m/S 723 mmHg 49%
09:00 +7°C° 0 mm 0 m/S 723 mmHg 47%
10:00 +9°C° 0 mm 0 m/S 723 mmHg 44%
11:00 +11°C° 0 mm 0 m/S 723 mmHg 43%
12:00 +12°C° 0 mm 0 m/S 723 mmHg 41%
13:00 +15°C° 0 mm 1 m/S 723 mmHg 40%
14:00 +15°C° 0 mm 1 m/S 722 mmHg 41%
15:00 +14°C° 0 mm 0 m/S 722 mmHg 43%
16:00 +14°C° 0 mm 0 m/S 721 mmHg 44%
17:00 +12°C° 0 mm 1 m/S 721 mmHg 49%
18:00 +10°C° 0 mm 1 m/S 721 mmHg 54%
19:00 +8°C° 0 mm 1 m/S 721 mmHg 59%
20:00 +8°C° 0 mm 1 m/S 721 mmHg 60%
21:00 +7°C° 0 mm 1 m/S 720 mmHg 62%
22:00 +6°C° 0 mm 1 m/S 720 mmHg 63%
23:00 +6°C° 0 mm 1 m/S 720 mmHg 63%

übermorgen, 4 März, Donnerstag

Zeit Temperatur Niederschläge Wind Luftdruck Luftfeuchtigkeit
00:00 +6°C° 0 mm 1 m/S 720 mmHg 63%
01:00 +5°C° 0 mm 1 m/S 719 mmHg 62%
02:00 +5°C° 0 mm 1 m/S 719 mmHg 62%
03:00 +5°C° 0 mm 1 m/S 718 mmHg 61%
04:00 +5°C° 0 mm 1 m/S 718 mmHg 61%
05:00 +5°C° 0 mm 1 m/S 718 mmHg 61%
06:00 +5°C° 0 mm 1 m/S 718 mmHg 61%
07:00 +5°C° 0 mm 1 m/S 717 mmHg 61%
08:00 +7°C° 0 mm 1 m/S 717 mmHg 59%
09:00 +7°C° 0 mm 0 m/S 717 mmHg 57%
10:00 +9°C° 0 mm 0 m/S 717 mmHg 55%
11:00 +11°C° 0 mm 1 m/S 716 mmHg 54%
12:00 +12°C° 0 mm 1 m/S 716 mmHg 53%
13:00 +13°C° 0 mm 2 m/S 716 mmHg 52%
14:00 +13°C° 0 mm 2 m/S 715 mmHg 56%
15:00 +13°C° 0 mm 2 m/S 715 mmHg 59%
16:00 +12°C° 0 mm 2 m/S 714 mmHg 63%
17:00 +10°C° 0.6 mm 2 m/S 714 mmHg 73%
18:00 +8°C° 0.6 mm 2 m/S 714 mmHg 83%
19:00 +8°C° 0.6 mm 1 m/S 714 mmHg 92%
20:00 +8°C° 0.6 mm 1 m/S 714 mmHg 92%
21:00 +7°C° 0.6 mm 1 m/S 714 mmHg 92%
22:00 +7°C° 0.6 mm 1 m/S 714 mmHg 92%
23:00 +7°C° 0.5 mm 1 m/S 714 mmHg 93%

5 März, Freitag

Zeit Temperatur Niederschläge Wind Luftdruck Luftfeuchtigkeit
00:00 +7°C° 0.5 mm 1 m/S 714 mmHg 94%
01:00 +6°C° 0.5 mm 1 m/S 713 mmHg 95%
02:00 +6°C° 0.5 mm 1 m/S 713 mmHg 95%
03:00 +6°C° 0.5 mm 1 m/S 713 mmHg 95%
04:00 +6°C° 0.5 mm 1 m/S 713 mmHg 95%
05:00 +6°C° 0.5 mm 1 m/S 713 mmHg 96%
06:00 +6°C° 0.5 mm 1 m/S 714 mmHg 96%
07:00 +6°C° 0.5 mm 1 m/S 714 mmHg 96%
08:00 +6°C° 0.5 mm 1 m/S 714 mmHg 94%
09:00 +6°C° 0.5 mm 1 m/S 714 mmHg 92%
10:00 +6°C° 0.5 mm 1 m/S 714 mmHg 90%
11:00 +6°C° 0.3 mm 1 m/S 714 mmHg 90%
12:00 +6°C° 0.3 mm 1 m/S 714 mmHg 90%
13:00 +6°C° 0.3 mm 1 m/S 714 mmHg 90%
14:00 +6°C° 0.5 mm 1 m/S 714 mmHg 91%
15:00 +4°C° 0.5 mm 2 m/S 714 mmHg 91%
16:00 +4°C° 0.5 mm 2 m/S 714 mmHg 92%
17:00 +3°C° 0.3 mm 2 m/S 715 mmHg 92%
18:00 +3°C° 0.3 mm 2 m/S 716 mmHg 91%
19:00 +2°C° 0.3 mm 2 m/S 716 mmHg 91%
20:00 +2°C° 0.1 mm 2 m/S 717 mmHg 91%
21:00 +1°C° 0.1 mm 2 m/S 717 mmHg 91%
22:00 0°C° 0.1 mm 3 m/S 718 mmHg 92%
23:00 -1°C° 0 mm 2 m/S 718 mmHg 92%

6 März, Samstag

Zeit Temperatur Niederschläge Wind Luftdruck Luftfeuchtigkeit
00:00 -1°C° 0 mm 2 m/S 718 mmHg 92%
01:00 -2°C° 0 mm 2 m/S 719 mmHg 92%
02:00 -2°C° 0 mm 2 m/S 719 mmHg 92%
03:00 -2°C° 0 mm 2 m/S 719 mmHg 92%
04:00 -3°C° 0 mm 2 m/S 719 mmHg 93%
05:00 -3°C° 0 mm 2 m/S 719 mmHg 92%
06:00 -3°C° 0 mm 2 m/S 719 mmHg 92%
07:00 -3°C° 0 mm 2 m/S 720 mmHg 91%
08:00 -2°C° 0 mm 2 m/S 720 mmHg 86%
09:00 -1°C° 0 mm 2 m/S 720 mmHg 80%
10:00 +1°C° 0 mm 3 m/S 720 mmHg 74%
11:00 +2°C° 0 mm 3 m/S 720 mmHg 70%
12:00 +3°C° 0 mm 3 m/S 720 mmHg 66%
13:00 +4°C° 0 mm 3 m/S 720 mmHg 61%
14:00 +4°C° 0 mm 3 m/S 720 mmHg 60%
15:00 +4°C° 0 mm 3 m/S 720 mmHg 59%
16:00 +4°C° 0 mm 3 m/S 720 mmHg 58%
17:00 +3°C° 0 mm 3 m/S 720 mmHg 62%
18:00 +2°C° 0 mm 2 m/S 720 mmHg 65%
19:00 -1°C° 0 mm 2 m/S 720 mmHg 69%
20:00 -1°C° 0 mm 2 m/S 720 mmHg 71%
21:00 0°C° 0 mm 1 m/S 721 mmHg 73%
22:00 -1°C° 0 mm 1 m/S 721 mmHg 75%
23:00 -1°C° 0 mm 1 m/S 721 mmHg 75%

7 März, Sonntag

Zeit Temperatur Niederschläge Wind Luftdruck Luftfeuchtigkeit
00:00 -1°C° 0 mm 1 m/S 721 mmHg 76%
01:00 -2°C° 0 mm 1 m/S 721 mmHg 77%
02:00 -2°C° 0 mm 1 m/S 720 mmHg 76%
03:00 -2°C° 0 mm 1 m/S 720 mmHg 76%
04:00 -3°C° 0 mm 0 m/S 720 mmHg 76%
05:00 -3°C° 0 mm 0 m/S 720 mmHg 76%
06:00 -3°C° 0 mm 0 m/S 720 mmHg 75%
07:00 -3°C° 0 mm 0 m/S 720 mmHg 75%
08:00 -1°C° 0 mm 0 m/S 720 mmHg 68%
09:00 +1°C° 0 mm 0 m/S 720 mmHg 62%
10:00 +4°C° 0 mm 1 m/S 719 mmHg 56%
11:00 +5°C° 0 mm 1 m/S 719 mmHg 54%
12:00 +7°C° 0 mm 1 m/S 719 mmHg 53%
13:00 +8°C° 0 mm 1 m/S 719 mmHg 52%
14:00 +8°C° 0 mm 1 m/S 718 mmHg 53%
15:00 +8°C° 0 mm 1 m/S 718 mmHg 54%
16:00 +8°C° 0 mm 1 m/S 717 mmHg 55%
17:00 +6°C° 0 mm 1 m/S 717 mmHg 62%
18:00 +3°C° 0 mm 0 m/S 717 mmHg 69%
19:00 +1°C° 0 mm 0 m/S 717 mmHg 77%
20:00 0°C° 0 mm 0 m/S 717 mmHg 78%
21:00 0°C° 0 mm 0 m/S 717 mmHg 80%
22:00 0°C° 0 mm 0 m/S 717 mmHg 81%
23:00 -1°C° 0 mm 0 m/S 717 mmHg 81%
Mehr zeigen

Wir brauchen deine Erlaubnis

Meteoprog und unser Service Anbieter werden persönliche Daten aufbewahren, so wie Cookies, Geräte Bezeichnung oder ähnliche Technologien von deinem Gerät und Prozess, so wie Persönliche Daten Inhalte und Werbungen, genauso wie social Media und den Verkehr zu analysieren.

  • Aufbewahrung und/oder Zugang zu deiner Geräte Informationen.

    Cookies, Geräte Bezeichnung oder andere Informationen, können aufbewahrt oder Zugang zu deinem Gerät erhalten, für den Grund, der oben angegeben wird.

  • Personalisierte Werbung und Inhalte, Messungen, Einblick in das Publikum und Produkt Entwicklung.

    Werbungen und Inhalte können personalisiert werden, basierend auf ein Profil. Mehr Daten können besser personalisierte Werbungen und Inhalte hinzufügen. Werbung und Inhalte können gezeigt und gemessen werden. Einblicke über das Publikum, welche die Werbung gesehen haben und den Inhalt, können abgeleitet werden. So wie Daten können genutzt werden, um es zu verbessern oder die Benutzer Erfahrung zu verbessern das System und die Software.

Wenn du “Ich stimme zu” klickst, erlaubst du uns, die Cookies zu benutzen die Geräte Bezeichnung, den Web oder ähnliche Technologien zu benutzen. Deine Settings, können in deinem Gerät bei deinem Browser geändert werden.

Für den bestimmten Zweck, berechtigten Interessen beruhen darauf, mehr als auf den Inhalt. Du kannst mehr darüber in unseren Privaten und Cookie Politik lesen.